GW0029 Weather Reports


time (UTC)temp
F
wind
direction
speed
knots
gust
knots
rain 1hr
in
rain 24hr
in
rain mn
in
humidity
%
barometer
mb
20260507052005 41 93 4.3 6.1 0.00 0.00 0.00 77 1014.0
20260507051504 40 88 3.5 6.1 0.00 0.00 0.00 78 1014.0
20260507050504 40 95 5.2 7.8 0.00 0.00 0.00 79 1014.0
20260507050006 40 95 5.2 7.8 0.00 0.00 0.00 79 1014.0
20260507045005 40 101 5.2 7.0 0.00 0.00 0.00 82 1014.0
20260507044004 39 107 5.2 7.8 0.00 0.00 0.00 83 1014.0
20260507042504 38 87 0.9 4.3 0.00 0.00 0.00 80 1014.0
20260507042004 38 0 0.0 0.0 0.00 0.00 0.00 79 1014.0
20260507041505 38 0 0.0 0.0 0.00 0.00 0.00 79 1014.0
20260507041006 38 0 0.0 0.0 0.00 0.00 0.00 80 1014.0
20260507040504 38 0 0.0 0.0 0.00 0.00 0.00 80 1014.0
20260507040005 37 0 0.0 0.0 0.00 0.00 0.00 80 1014.0
20260507035504 37 0 0.0 0.0 0.00 0.00 0.00 80 1014.0
20260507035006 36 0 0.0 0.0 0.00 0.00 0.00 80 1014.0
20260507034004 36 0 0.0 0.0 0.00 0.00 0.00 79 1013.0
20260507033505 36 0 0.0 0.0 0.00 0.00 0.00 79 1013.0
20260507033005 36 0 0.0 0.0 0.00 0.00 0.00 79 1013.0
20260507032504 36 0 0.0 0.0 0.00 0.00 0.00 79 1013.0
20260507032005 36 0 0.0 0.0 0.00 0.00 0.00 79 1013.0
20260507031504 36 0 0.0 0.0 0.00 0.00 0.00 79 1013.0
20260507031006 36 0 0.0 0.0 0.00 0.00 0.00 79 1012.0
20260507030504 36 0 0.0 0.0 0.00 0.00 0.00 79 1012.0
20260507030004 36 0 0.0 0.0 0.00 0.00 0.00 79 1012.0
20260507025006 36 0 0.0 0.0 0.00 0.00 0.00 79 1012.0
20260507024504 36 0 0.0 0.0 0.00 0.00 0.00 78 1012.0
20260507024005 36 0 0.0 0.0 0.00 0.00 0.00 78 1012.0
20260507023504 36 0 0.0 0.0 0.00 0.00 0.00 77 1012.0
20260507023005 36 0 0.0 0.0 0.00 0.00 0.00 76 1012.0
20260507022505 36 0 0.0 0.0 0.00 0.00 0.00 76 1012.0
20260507022005 36 0 0.0 0.0 0.00 0.00 0.00 76 1012.0
20260507021005 37 0 0.0 0.0 0.00 0.00 0.00 76 1012.0
20260507020504 37 0 0.0 0.0 0.00 0.00 0.00 76 1012.0
20260507020005 36 0 0.0 0.0 0.00 0.00 0.00 76 1012.0
20260507015504 36 0 0.0 0.0 0.00 0.00 0.00 75 1012.0
20260507015004 36 0 0.0 0.0 0.00 0.00 0.00 75 1012.0
20260507014505 37 0 0.0 0.0 0.00 0.00 0.00 75 1012.0
20260507014004 37 0 0.0 0.0 0.00 0.00 0.00 74 1012.0
20260507013505 37 0 0.0 0.0 0.00 0.00 0.00 74 1012.0
20260507013004 37 0 0.0 0.0 0.00 0.00 0.00 73 1012.0
20260507012505 37 0 0.0 0.0 0.00 0.00 0.00 73 1012.0
20260507012005 37 0 0.0 0.0 0.00 0.00 0.00 73 1012.0
20260507011504 37 0 0.0 0.0 0.00 0.00 0.00 73 1012.0
20260507010506 37 0 0.0 0.0 0.00 0.00 0.00 73 1011.0
20260507010005 37 0 0.0 0.0 0.00 0.00 0.00 72 1011.0
20260507005505 38 0 0.0 0.0 0.00 0.00 0.00 71 1012.0
20260507005004 38 0 0.0 0.0 0.00 0.00 0.00 71 1012.0
20260507004504 38 0 0.0 0.0 0.00 0.00 0.00 71 1012.0
20260507004006 38 0 0.0 0.0 0.00 0.00 0.00 72 1011.0
20260507003504 38 0 0.0 0.0 0.00 0.00 0.00 72 1011.0
20260507003004 39 112 0.0 2.6 0.00 0.00 0.00 71 1011.0
20260507002505 39 104 1.7 4.3 0.00 0.00 0.00 71 1012.0
20260507001504 39 112 0.0 3.5 0.00 0.00 0.00 70 1012.0
20260507001004 39 0 0.0 0.0 0.00 0.00 0.00 69 1012.0
20260507000505 39 0 0.0 0.0 0.00 0.00 0.00 69 1012.0
20260507000006 39 0 0.0 0.0 0.00 0.00 0.00 68 1012.0
20260506235504 39 0 0.0 0.0 0.00 0.00 0.00 67 1013.0
20260506235004 40 0 0.0 0.0 0.00 0.00 0.00 67 1013.0
20260506234505 40 107 0.9 3.5 0.00 0.00 0.00 67 1013.0
20260506234005 40 110 1.7 4.3 0.00 0.00 0.00 66 1012.0
20260506233006 41 94 0.9 3.5 0.00 0.00 0.00 65 1012.0
20260506232504 42 0 0.0 0.0 0.00 0.00 0.00 67 1013.0
20260506232005 42 0 0.0 0.0 0.00 0.00 0.00 66 1013.0
20260506231504 42 0 0.0 0.0 0.00 0.00 0.00 67 1013.0
20260506231005 42 0 0.0 0.0 0.00 0.00 0.00 67 1012.0
20260506230504 42 0 0.0 0.0 0.00 0.00 0.00 68 1012.0
20260506230005 42 0 0.0 0.0 0.00 0.00 0.00 67 1012.0
20260506225006 42 0 0.0 0.0 0.00 0.00 0.00 66 1012.0
20260506224504 42 0 0.0 0.0 0.00 0.00 0.00 65 1012.0
20260506224004 42 0 0.0 0.0 0.00 0.00 0.00 65 1012.0
20260506223504 42 0 0.0 0.0 0.00 0.00 0.00 64 1012.0
20260506223004 42 0 0.0 0.0 0.00 0.00 0.00 63 1012.0
20260506222005 42 0 0.0 0.0 0.00 0.00 0.00 60 1012.0
20260506221504 42 0 0.0 0.0 0.00 0.00 0.00 59 1012.0
20260506221004 42 0 0.0 0.0 0.00 0.00 0.00 59 1012.0
20260506220505 43 0 0.0 0.0 0.00 0.00 0.00 58 1012.0
20260506220005 43 0 0.0 0.0 0.00 0.00 0.00 57 1012.0
20260506215505 44 0 0.0 0.0 0.00 0.00 0.00 56 1012.0
20260506215005 44 198 0.0 4.3 0.00 0.00 0.00 55 1012.0
20260506214505 44 195 0.9 4.3 0.00 0.00 0.00 55 1012.0
20260506214004 44 195 0.0 1.7 0.00 0.00 0.00 53 1011.0
20260506213506 44 200 0.0 1.7 0.00 0.00 0.00 52 1011.0
20260506213005 44 198 0.9 2.6 0.00 0.00 0.00 52 1011.0
20260506212504 44 197 0.9 2.6 0.00 0.00 0.00 51 1011.0
20260506212006 45 0 0.0 0.0 0.00 0.00 0.00 50 1011.0
20260506211506 45 0 0.0 0.0 0.00 0.00 0.00 49 1011.0
20260506211004 45 162 0.0 2.6 0.00 0.00 0.00 47 1011.0
20260506210505 45 170 0.0 2.6 0.00 0.00 0.00 46 1011.0
20260506210004 45 203 0.0 0.9 0.00 0.00 0.00 45 1011.0
20260506205505 45 0 0.0 0.0 0.00 0.00 0.00 45 1011.0
20260506205005 45 0 0.0 0.0 0.00 0.00 0.00 45 1011.0
20260506204006 46 0 0.0 0.0 0.00 0.00 0.00 44 1011.0
20260506203005 46 0 0.0 0.0 0.00 0.00 0.00 43 1011.0
20260506202505 46 0 0.0 0.0 0.00 0.00 0.00 43 1011.0
20260506202005 47 0 0.0 0.0 0.00 0.00 0.00 43 1011.0
20260506201504 47 0 0.0 0.0 0.00 0.00 0.00 43 1011.0
20260506201005 47 0 0.0 0.0 0.00 0.00 0.00 43 1011.0
20260506200505 47 225 0.0 1.7 0.00 0.00 0.00 42 1011.0
20260506195505 47 0 0.0 0.0 0.00 0.00 0.00 42 1011.0
20260506195006 48 0 0.0 0.0 0.00 0.00 0.00 42 1011.0
20260506194504 48 0 0.0 0.0 0.00 0.00 0.00 43 1011.0
20260506194005 48 0 0.0 0.0 0.00 0.00 0.00 43 1011.0
20260506193505 48 203 0.0 0.9 0.00 0.00 0.00 42 1011.0
20260506193005 49 203 0.0 0.9 0.00 0.00 0.00 42 1011.0
20260506192004 49 0 0.0 0.0 0.00 0.00 0.00 41 1011.0
20260506191505 50 0 0.0 0.0 0.00 0.00 0.00 41 1011.0
20260506191005 50 244 0.0 1.7 0.00 0.00 0.00 41 1010.0
20260506190006 51 240 0.0 1.7 0.00 0.00 0.00 41 1010.0
20260506185504 51 248 0.0 1.7 0.00 0.00 0.00 41 1010.0
20260506185005 51 0 0.0 0.0 0.00 0.00 0.00 40 1010.0
20260506184505 52 282 0.0 2.6 0.00 0.00 0.00 40 1010.0
20260506184004 52 282 0.0 2.6 0.00 0.00 0.00 40 1010.0
20260506183006 53 248 0.0 0.9 0.00 0.00 0.00 40 1010.0
20260506182505 53 0 0.0 0.0 0.00 0.00 0.00 39 1009.0
20260506181505 53 279 0.0 3.5 0.00 0.00 0.00 39 1009.0
20260506181004 54 301 0.0 2.6 0.00 0.00 0.00 39 1010.0
20260506180005 54 294 0.0 4.3 0.00 0.00 0.00 39 1010.0
20260506175505 55 277 0.9 7.0 0.00 0.00 0.00 39 1010.0
20260506175005 55 273 1.7 7.0 0.00 0.00 0.00 39 1010.0
20260506174504 55 269 0.9 4.3 0.00 0.00 0.00 39 1010.0
20260506174005 56 294 0.9 4.3 0.00 0.00 0.00 38 1010.0
20260506173504 56 294 0.9 5.2 0.00 0.00 0.00 37 1010.0
20260506173006 56 285 0.9 5.2 0.00 0.00 0.00 39 1010.0
20260506172504 56 257 0.0 2.6 0.00 0.00 0.00 39 1010.0
20260506171504 56 302 1.7 5.2 0.00 0.00 0.00 39 1010.0
20260506170504 56 298 1.7 6.1 0.00 0.00 0.00 38 1010.0
20260506170005 56 279 0.9 4.3 0.00 0.00 0.00 39 1010.0
20260506165504 56 287 0.9 3.5 0.00 0.00 0.00 40 1010.0
20260506165005 56 297 1.7 4.3 0.00 0.00 0.00 39 1010.0
20260506164505 56 308 2.6 7.0 0.00 0.00 0.00 38 1010.0
20260506163504 56 298 2.6 6.1 0.00 0.00 0.00 37 1010.0
20260506161005 57 293 4.3 8.7 0.00 0.00 0.00 37 1010.0
20260506160504 58 309 5.2 8.7 0.00 0.00 0.00 36 1010.0
20260506160004 58 312 6.1 12.2 0.00 0.00 0.00 36 1010.0
20260506155505 58 302 6.1 12.2 0.00 0.00 0.00 37 1010.0
20260506155004 58 307 5.2 9.6 0.00 0.00 0.00 38 1010.0
20260506154505 58 310 6.1 10.4 0.00 0.00 0.00 37 1010.0
20260506154005 58 302 5.2 10.4 0.00 0.00 0.00 37 1010.0
20260506153504 58 308 4.3 9.6 0.00 0.00 0.00 39 1010.0
20260506153006 58 312 7.0 11.3 0.00 0.00 0.00 39 1010.0
20260506152504 58 311 7.0 11.3 0.00 0.00 0.00 37 1010.0
20260506152005 58 306 5.2 11.3 0.00 0.00 0.00 37 1010.0
20260506151504 58 302 5.2 9.6 0.00 0.00 0.00 38 1010.0
20260506151005 58 298 4.3 8.7 0.00 0.00 0.00 38 1010.0
20260506150504 58 298 4.3 8.7 0.00 0.00 0.00 39 1010.0
20260506150005 58 287 4.3 7.0 0.00 0.00 0.00 38 1010.0
20260506145504 58 289 4.3 9.6 0.00 0.00 0.00 38 1010.0
20260506145007 57 305 5.2 12.2 0.00 0.00 0.00 39 1010.0
20260506144504 57 299 4.3 12.2 0.00 0.00 0.00 38 1010.0
20260506144005 57 284 4.3 8.7 0.00 0.00 0.00 38 1010.0
20260506143505 58 310 6.1 13.0 0.00 0.00 0.00 40 1010.0
20260506143005 57 312 7.8 13.9 0.00 0.00 0.00 40 1010.0
20260506142004 58 305 6.1 11.3 0.00 0.00 0.00 40 1010.0
20260506141006 58 290 5.2 13.0 0.00 0.00 0.00 39 1010.0
20260506140504 58 295 5.2 13.0 0.00 0.00 0.00 39 1010.0
20260506140005 58 300 4.3 9.6 0.00 0.00 0.00 39 1010.0
20260506135005 58 321 8.7 13.0 0.00 0.00 0.00 38 1010.0
20260506134505 58 315 7.8 13.0 0.00 0.00 0.00 39 1010.0
20260506134004 58 288 6.1 11.3 0.00 0.00 0.00 41 1010.0
20260506133505 58 296 6.1 11.3 0.00 0.00 0.00 39 1010.0
20260506132505 59 300 6.1 11.3 0.00 0.00 0.00 41 1010.0
20260506132005 58 300 6.1 13.0 0.00 0.00 0.00 41 1010.0
20260506131006 59 287 5.2 9.6 0.00 0.00 0.00 41 1009.0
20260506130504 59 284 5.2 9.6 0.00 0.00 0.00 41 1009.0
20260506130005 59 284 4.3 9.6 0.00 0.00 0.00 41 1009.0
20260506125504 59 285 5.2 8.7 0.00 0.00 0.00 41 1009.0
20260506124504 60 294 6.1 13.0 0.00 0.00 0.00 41 1009.0
20260506124005 60 289 5.2 10.4 0.00 0.00 0.00 42 1009.0
20260506123504 60 311 7.0 13.9 0.00 0.00 0.00 43 1009.0
20260506123007 60 303 6.1 13.9 0.00 0.00 0.00 41 1009.0
20260506122504 61 265 4.3 13.0 0.00 0.00 0.00 40 1009.0
20260506122004 61 240 3.5 6.1 0.00 0.00 0.00 42 1009.0
20260506121005 61 246 3.5 7.0 0.00 0.00 0.00 41 1009.0
20260506120504 61 242 4.3 7.8 0.00 0.00 0.00 44 1009.0
20260506120005 61 238 4.3 8.7 0.00 0.00 0.00 43 1009.0
20260506115504 61 243 4.3 8.7 0.00 0.00 0.00 43 1009.0
20260506115006 61 250 3.5 8.7 0.00 0.00 0.00 44 1009.0
20260506114504 60 244 2.6 8.7 0.00 0.00 0.00 40 1009.0
20260506113504 60 319 2.6 6.1 0.00 0.00 0.00 35 1010.0
20260506113005 60 20 2.6 7.0 0.00 0.00 0.00 36 1010.0
20260506112505 60 24 4.3 7.0 0.00 0.00 0.00 35 1010.0
20260506111505 59 47 4.3 7.0 0.00 0.00 0.00 36 1010.0
20260506110005 58 321 0.9 6.1 0.00 0.00 0.00 35 1010.0
20260506105504 58 26 1.7 5.2 0.00 0.00 0.00 36 1010.0
20260506105005 59 63 3.5 6.1 0.00 0.00 0.00 36 1010.0
20260506104004 58 334 5.2 9.6 0.00 0.00 0.00 36 1010.0
20260506103504 58 12 3.5 8.7 0.00 0.00 0.00 36 1010.0
20260506103004 58 86 2.6 7.0 0.00 0.00 0.00 35 1010.0
20260506102505 58 80 4.3 7.8 0.00 0.00 0.00 37 1010.0
20260506102005 58 89 5.2 7.8 0.00 0.00 0.00 36 1010.0
20260506101505 58 87 4.3 8.7 0.00 0.00 0.00 39 1010.0
20260506101004 58 56 5.2 10.4 0.00 0.00 0.00 37 1010.0
20260506100505 58 83 6.1 10.4 0.00 0.00 0.00 36 1010.0
20260506100005 58 92 3.5 8.7 0.00 0.00 0.00 38 1010.0
20260506095505 58 63 2.6 7.0 0.00 0.00 0.00 39 1010.0
20260506095005 58 75 6.1 9.6 0.00 0.00 0.00 37 1010.0
20260506094505 58 92 6.1 9.6 0.00 0.00 0.00 37 1010.0
20260506093504 57 26 4.3 6.1 0.00 0.00 0.00 36 1010.0
20260506093005 58 50 4.3 7.0 0.00 0.00 0.00 37 1010.0
20260506092504 58 90 5.2 10.4 0.00 0.00 0.00 38 1010.0
20260506092005 57 82 6.1 10.4 0.00 0.00 0.00 39 1010.0
20260506091504 57 52 5.2 9.6 0.00 0.00 0.00 38 1010.0
20260506091006 57 38 5.2 7.8 0.00 0.00 0.00 38 1010.0
20260506090504 57 62 5.2 7.8 0.00 0.00 0.00 37 1010.0
20260506090006 57 89 6.1 10.4 0.00 0.00 0.00 40 1010.0
20260506085004 57 92 7.0 11.3 0.00 0.00 0.00 38 1009.0
20260506084505 57 89 7.0 11.3 0.00 0.00 0.00 40 1009.0
20260506084005 57 57 6.1 10.4 0.00 0.00 0.00 40 1009.0
20260506083505 57 55 6.1 8.7 0.00 0.00 0.00 39 1009.0
20260506082505 56 76 6.1 8.7 0.00 0.00 0.00 41 1009.0
20260506082006 56 71 6.1 8.7 0.00 0.00 0.00 41 1009.0
20260506081504 56 63 6.1 9.6 0.00 0.00 0.00 42 1009.0
20260506080504 56 76 6.1 7.8 0.00 0.00 0.00 43 1010.0
20260506073504 54 91 7.0 11.3 0.00 0.00 0.00 44 1010.0
20260506073005 54 77 7.0 12.2 0.00 0.00 0.00 44 1010.0
20260506072504 53 69 7.0 12.2 0.00 0.00 0.00 44 1010.0
20260506072006 53 72 7.0 10.4 0.00 0.00 0.00 44 1010.0
20260506071504 53 79 7.8 10.4 0.00 0.00 0.00 43 1010.0
20260506071005 53 82 7.8 9.6 0.00 0.00 0.00 45 1010.0
20260506070504 52 84 7.0 9.6 0.00 0.00 0.00 46 1010.0
20260506062505 49 72 6.1 9.6 0.00 0.00 0.00 49 1010.0
20260506062004 48 66 3.5 8.7 0.00 0.00 0.00 48 1010.0
20260506061504 48 67 1.7 4.3 0.00 0.00 0.00 49 1010.0
20260506061005 47 66 0.9 3.5 0.00 0.00 0.00 51 1010.0
20260506060505 46 63 2.6 5.2 0.00 0.00 0.00 52 1010.0